Location: Unspecified
(33.6682°S, 0.0000°E)
Time: 20:14:14
(UTC+00:00)

Vanguard 2 Rocket - Pass Details

Date: 21 June 2019
Orbit: 554 x 3326 km, 32.9° (Epoch: 21 July)

Event Time Altitude Azimuth Distance (km) Brightness Sun altitude
Rises 05:28:36 0° 341° (NNW) 7,294 11.5 -19.3°
Reaches altitude 10° 05:35:48 10° 355° (N) 6,145 11.2 -17.9°
Maximum altitude 05:47:42 21° 34° (NE) 4,724 11.2 -15.5°
Drops below altitude 10° 05:57:09 10° 75° (ENE) 4,813 12.0 -13.6°
Sets 06:01:39 0° 90° (E) 5,366 12.3 -12.8°
